Lake Charles Regional, LA

8:01 PM CDT on August 22, 2017 (GMT -0500)
Lake Charles Regional

Weather History for KLCH - August, 2013

Change the Weather History Date:

Wednesday, August 21, 2013

  Actual Average Record
Temperature  
Mean Temperature 83 °F 83 °F  
Max Temperature 93 °F 92 °F 101 °F (1925)
Min Temperature 73 °F 74 °F 61 °F (1940)
Degree Days  
Heating Degree Days 0 0  
Month to date heating degree days 0 0  
Since 1 June heating degree days 0 0  
Since 1 July heating degree days 0 0  
Cooling Degree Days 18 18  
Month to date cooling degree days 419 378  
Year to date cooling degree days 2023 1949  
Since 1 June cooling degree days 1538 1411  
Growing Degree Days 33 (Base 50)    
Moisture  
Dew Point 73 °F    
Average Humidity 73    
Maximum Humidity 94    
Minimum Humidity 52    
Precipitation  
Precipitation T in 0.16 in 1.91 in (1942)
Month to date precipitation 2.84 3.31  
Year to date precipitation 38.13 36.67  
Snow  
Snow 0.00 in 0.00 in 0.00 in ()
Month to date snowfall 0.0 0.0  
Since 1 June snowfall 0.0 0.0  
Since 1 July snowfall 0.0 0.0  
Snow Depth 0.00 in    
Sea Level Pressure  
Sea Level Pressure 30.07 in    
Wind  
Wind Speed 7 mph (East)    
Max Wind Speed 18 mph    
Max Gust Speed 24 mph    
Visibility 10 miles    
Events Rain , Thunderstorm    
T = Trace of Precipitation, MM = Missing Value Source: NWS Daily Summary

Daily Weather History Graph

Daily Weather History Graph

Search for Another Location

Airport or City:

Trip Planner

Search our weather history database for the weather conditions in past years. The results will help you decide how hot, cold, wet, or windy it might be!

Date:

Astronomy

Aug. 21, 2013 Rise Set
Actual Time 6:43 AM CDT 7:47 PM CDT
Civil Twilight 6:18 AM CDT 8:12 PM CDT
Nautical Twilight 5:49 AM CDT 8:41 PM CDT
Astronomical Twilight 5:19 AM CDT 9:12 PM CDT
Moon 8:06 PM CDT (8/21) 7:17 AM CDT (8/21)
Length of Visible Light 13h 53m
Length of Day
13h 03m
Waxing Gibbous, 99% of the Moon is Illuminated
Aug 21
Waxing Gibbous
Aug 28
Last Quarter
Sep 5
New
Sep 12
First Quarter
Sep 19
Full

Hourly Weather History & Observations

Time (CDT) Temp. Heat Index Dew Point Humidity Pressure Visibility Wind Dir Wind Speed Gust Speed Precip Events Conditions
12:53 AM 75.9 °F - 73.0 °F 91% 30.07 in 10.0 mi East 3.5 mph - N/A   Clear
1:53 AM 75.0 °F - 72.0 °F 90% 30.06 in 10.0 mi ESE 3.5 mph - N/A   Clear
2:53 AM 73.9 °F - 72.0 °F 93% 30.06 in 10.0 mi NNE 3.5 mph - N/A   Clear
3:53 AM 73.9 °F - 72.0 °F 93% 30.05 in 10.0 mi NE 4.6 mph - N/A   Clear
4:53 AM 73.9 °F - 71.1 °F 91% 30.05 in 10.0 mi Calm Calm - N/A   Clear
5:53 AM 73.0 °F - 71.1 °F 93% 30.06 in 9.0 mi NE 5.8 mph - N/A   Clear
6:53 AM 73.0 °F - 71.1 °F 93% 30.07 in 9.0 mi NE 3.5 mph - N/A   Clear
7:53 AM 75.0 °F - 72.0 °F 90% 30.09 in 10.0 mi NE 5.8 mph - N/A   Clear
8:53 AM 79.0 °F - 73.9 °F 84% 30.10 in 10.0 mi East 6.9 mph - N/A   Clear
9:21 AM 80.6 °F 86.2 °F 75.2 °F 84% 30.09 in 10.0 mi ENE 8.1 mph - N/A   Partly Cloudy
9:53 AM 82.9 °F 90.2 °F 75.0 °F 77% 30.12 in 10.0 mi NE 6.9 mph - N/A   Scattered Clouds
10:53 AM 87.1 °F 96.3 °F 75.0 °F 67% 30.12 in 10.0 mi ENE 9.2 mph - N/A   Mostly Cloudy
11:49 AM 87.8 °F 95.6 °F 73.4 °F 62% 30.09 in 10.0 mi ENE 9.2 mph - N/A   Scattered Clouds
11:53 AM 87.1 °F 95.4 °F 73.9 °F 65% 30.12 in 10.0 mi ENE 8.1 mph - N/A   Scattered Clouds
12:53 PM 91.0 °F 100.4 °F 73.9 °F 57% 30.09 in 10.0 mi NE 8.1 mph - N/A   Partly Cloudy
1:53 PM 91.0 °F 100.4 °F 73.9 °F 57% 30.08 in 10.0 mi East 6.9 mph - N/A   Clear
2:31 PM 89.6 °F 98.2 °F 73.4 °F 59% 30.05 in 10.0 mi SE 12.7 mph 16.1 mph N/A Thunderstorm Scattered Clouds
2:53 PM 89.1 °F 98.0 °F 73.9 °F 61% 30.07 in 3.0 mi ESE 17.3 mph - N/A Thunderstorm Haze
3:15 PM 87.8 °F 95.6 °F 73.4 °F 62% 30.04 in 10.0 mi ESE 11.5 mph - 0.00 in Rain Light Rain
3:53 PM 91.0 °F 101.6 °F 75.0 °F 59% 30.05 in 10.0 mi SE 8.1 mph - 0.00 in   Clear
4:53 PM 91.0 °F 100.4 °F 73.9 °F 57% 30.04 in 10.0 mi ESE 9.2 mph - N/A   Clear
5:53 PM 91.0 °F 98.2 °F 72.0 °F 53% 30.04 in 10.0 mi SSE 9.2 mph - N/A   Clear
6:53 PM 87.1 °F 95.4 °F 73.9 °F 65% 30.04 in 10.0 mi South 6.9 mph - N/A   Clear
7:53 PM 84.9 °F 92.1 °F 73.9 °F 69% 30.05 in 10.0 mi East 5.8 mph - N/A   Partly Cloudy
8:53 PM 81.0 °F 86.7 °F 75.0 °F 82% 30.04 in 10.0 mi SE 3.5 mph - N/A   Clear
9:53 PM 80.1 °F 84.5 °F 73.9 °F 81% 30.07 in 10.0 mi East 5.8 mph - N/A   Clear
10:53 PM 79.0 °F - 73.0 °F 82% 30.08 in 10.0 mi East 6.9 mph - N/A   Clear
11:53 PM 78.1 °F - 73.0 °F 84% 30.09 in 10.0 mi ESE 6.9 mph - N/A   Clear